FW6626 Weather Reports


time (UTC)temp
C
wind
direction
speed
KPH
gust
KPH
rain 1hr
cm
rain 24hr
cm
rain mn
cm
humidity
%
barometer
mb
20260906200105 26 19 14.5 33.8 0.03 0.05 0.05 68 1013.4
20260906194558 25 5 6.4 19.3 0.00 0.03 0.03 70 1013.6
20260906193056 25 26 8.0 20.9 0.00 0.03 0.03 73 1014.0
20260906191608 24 13 6.4 17.7 0.00 0.03 0.03 75 1014.0
20260906190059 23 31 3.2 17.7 0.00 0.03 0.03 75 1014.2
20260906184606 23 47 3.2 11.3 0.00 0.03 0.03 72 1014.2
20260906183054 23 20 3.2 14.5 0.00 0.03 0.03 70 1014.3
20260906181602 23 0 1.6 6.4 0.00 0.03 0.03 69 1014.5
20260906180119 23 319 1.6 14.5 0.00 0.03 0.03 67 1014.6
20260906174602 24 333 3.2 16.1 0.00 0.03 0.03 64 1014.6
20260906173059 24 343 4.8 17.7 0.00 0.03 0.03 63 1014.3
20260906171557 23 25 3.2 16.1 0.00 0.03 0.03 65 1014.4
20260906170055 24 321 4.8 17.7 0.00 0.03 0.03 66 1014.4
20260906164555 24 320 6.4 14.5 0.00 0.03 0.03 65 1014.0
20260906163104 24 352 1.6 9.7 0.00 0.03 0.03 67 1013.8
20260906161558 24 344 3.2 12.9 0.00 0.03 0.03 71 1013.8
20260906160109 23 351 0.0 4.8 0.00 0.03 0.03 72 1013.6
20260906154609 23 12 1.6 6.4 0.00 0.03 0.03 72 1013.6
20260906153115 22 311 0.0 4.8 0.00 0.03 0.03 71 1013.5
20260906151608 22 302 1.6 4.8 0.00 0.03 0.03 70 1013.6
20260906150058 22 0 0.0 6.4 0.00 0.03 0.03 68 1013.6
20260906144601 22 290 4.8 11.3 0.00 0.03 0.03 68 1013.4
20260906143059 22 319 1.6 11.3 0.00 0.03 0.03 73 1013.4
20260906141602 22 300 3.2 14.5 0.00 0.03 0.03 74 1013.3
20260906140109 22 308 8.0 17.7 0.00 0.03 0.03 69 1013.0
20260906134614 22 283 8.0 12.9 0.00 0.03 0.03 74 1012.8
20260906133109 22 311 4.8 8.0 0.00 0.03 0.03 67 1012.4
20260906131606 22 360 0.0 6.4 0.00 0.03 0.03 68 1012.2
20260906130103 22 13 3.2 8.0 0.00 0.03 0.03 69 1012.1
20260906124603 22 22 4.8 9.7 0.00 0.03 0.03 72 1012.0
20260906123100 22 23 3.2 6.4 0.00 0.03 0.03 72 1012.0
20260906121553 22 24 4.8 11.3 0.00 0.03 0.03 69 1012.1
20260906120125 21 22 4.8 8.0 0.03 0.03 0.03 75 1012.2
20260906114555 21 18 3.2 8.0 0.03 0.03 0.03 75 1012.3
20260906113104 20 360 1.6 6.4 0.03 0.03 0.03 82 1012.2
20260906111607 21 74 1.6 6.4 0.03 0.03 0.03 86 1012.4
20260906110103 22 126 0.0 4.8 0.00 0.00 0.00 87 1012.4
20260906104557 22 140 0.0 3.2 0.00 0.00 0.00 87 1012.4
20260906103111 22 0 1.6 4.8 0.00 0.00 0.00 87 1012.5
20260906101601 22 169 1.6 4.8 0.00 0.00 0.00 87 1012.4
20260906094555 22 0 0.0 1.6 0.00 0.00 0.00 87 1012.3
20260906093100 22 0 0.0 3.2 0.00 0.00 0.00 87 1012.8
20260906091600 22 182 0.0 3.2 0.00 0.00 0.00 87 1012.6
20260906090116 21 0 0.0 1.6 0.00 0.00 0.00 86 1012.5
20260906084558 22 0 0.0 4.8 0.00 0.00 0.00 86 1012.8
20260906083107 22 182 3.2 8.0 0.00 0.00 0.00 85 1013.1
20260906081601 22 254 3.2 4.8 0.00 0.00 0.00 84 1013.1
20260906080122 22 254 1.6 4.8 0.00 0.00 0.00 83 1013.1
20260906074608 22 255 1.6 6.4 0.00 0.00 0.00 83 1013.0
20260906073114 22 0 0.0 0.0 0.00 0.00 0.00 84 1013.0
20260906071602 22 0 0.0 0.0 0.00 0.00 0.00 84 1012.9
20260906070057 22 263 1.6 4.8 0.00 0.00 0.00 84 1013.0
20260906064607 22 0 0.0 0.0 0.00 0.00 0.00 83 1013.1
20260906063057 22 0 0.0 4.8 0.00 0.00 0.00 83 1013.1
20260906061605 22 0 0.0 3.2 0.00 0.00 0.00 82 1013.0
20260906060104 22 266 1.6 6.4 0.00 0.00 0.00 81 1012.8
20260906054603 22 263 1.6 9.7 0.00 0.00 0.00 80 1012.9
20260906053057 22 286 3.2 9.7 0.00 0.00 0.00 79 1013.0
20260906051607 22 269 1.6 9.7 0.00 0.00 0.00 79 1013.0
20260906050110 23 272 4.8 9.7 0.00 0.00 0.00 76 1013.0
20260906044559 23 273 3.2 9.7 0.00 0.00 0.00 75 1013.0
20260906043104 22 271 3.2 4.8 0.00 0.00 0.00 75 1013.0
20260906041605 22 269 1.6 3.2 0.00 0.00 0.00 76 1013.0
20260906034639 22 271 1.6 3.2 0.00 0.00 0.00 76 1012.9
20260906033056 22 0 0.0 0.0 0.00 0.00 0.00 74 1012.7
20260906031554 23 0 0.0 4.8 0.00 0.00 0.00 73 1012.8
20260906030056 23 0 0.0 4.8 0.00 0.00 0.00 72 1012.7
20260906024602 23 277 0.0 4.8 0.00 0.00 0.00 72 1012.7
20260906023058 22 271 1.6 6.4 0.00 0.00 0.00 72 1012.6
20260906021604 23 0 0.0 6.4 0.00 0.00 0.00 77 1012.6
20260906020100 23 250 1.6 9.7 0.00 0.00 0.00 76 1012.7
20260906014554 23 360 3.2 12.9 0.00 0.00 0.00 77 1012.7
20260906013106 23 259 6.4 14.5 0.00 0.00 0.00 75 1012.7
20260906011556 24 256 8.0 16.1 0.00 0.00 0.00 70 1012.8
20260906010058 26 262 8.0 14.5 0.00 0.00 0.00 67 1012.7
20260906004603 25 263 8.0 14.5 0.00 0.00 0.00 68 1012.5
20260906003059 26 360 6.4 16.1 0.00 0.00 0.00 67 1012.6
20260906001555 26 254 6.4 16.1 0.00 0.00 0.00 66 1012.4
20260906000106 26 360 6.4 16.1 0.00 0.00 0.00 64 1012.5
20260905234620 26 244 9.7 22.5 0.00 0.00 0.00 67 1012.6
20260905233102 26 360 11.3 19.3 0.00 0.00 0.00 65 1012.5
20260905231555 26 249 9.7 19.3 0.00 0.00 0.00 63 1012.5
20260905230104 26 257 11.3 19.3 0.00 0.00 0.00 66 1012.5
20260905224553 26 238 9.7 19.3 0.00 0.00 0.00 66 1012.7
20260905223057 26 234 11.3 19.3 0.00 0.00 0.00 64 1012.8
20260905221601 26 300 9.7 22.5 0.00 0.00 0.00 62 1012.9
20260905214605 26 360 9.7 19.3 0.00 0.00 0.00 54 1013.2
20260905213101 26 360 9.7 17.7 0.00 0.00 0.00 62 1013.3
20260905211556 26 270 11.3 19.3 0.00 0.00 0.00 66 1013.5
20260905210105 26 360 8.0 17.7 0.00 0.00 0.00 62 1013.5
20260905204555 26 248 8.0 17.7 0.00 0.00 0.00 65 1013.8
20260905203111 25 250 11.3 17.7 0.00 0.00 0.00 67 1013.9
20260905201557 25 248 8.0 16.1 0.00 0.00 0.00 69 1014.0